map of BLR home
BLR - Airport
Location
City:  Bangalore, Karnataka, India
Near (Alt.):Bengaluru, Devanahalli
Name:Kempegowda International Airport
Old (Alt.):Bengaluru International Airport
ICAO:VOBL
IATA:BLR

Details
Type:Airport (Aerodrome, Airfield)
Use:Public/Civil, International (customs port of entry)
Latitude:1311'56"N (13.198867)
Longitude:7742'20"E (77.705472)
Elevation:3001 ft (915 m)
Variation:1.24W (WMM2015v2 magnetic declination)
0.03 annual change
Runways:1
Longest:13451 × 148 ft (4100 × 45 m), paved

Time
Time Zone:UTC+5:30
Local Time:

Weather
METAR:VOBL 041400Z 10007KT 8000 FEW012 24/14 Q1020 NOSIG
TAF:VOBL 041100Z 0412/0518 09005KT 6000 FEW015
BECMG 0421/0422 VRB02KT 3000 BR SCT010
TEMPO 0500/0503 1500 BR SCT008
BECMG 0504/0505 6000 09010KT FEW015

Related Locations
Nearby:
Farthest:IPC: 11367 mi / 18294 km
Easter Island (Isla de Pascua, Rapa Nui) [Mataveri Intl], VS, CL

Find:

   beyond  
but within

Other Information
Maps:
NOTAMs:
Links:
Sources:

  
  • flag of India
  

Sectional Chart

Flight Planning
at skyvector.com

Satellite Image

Google Maps Satellite view

 

Copyright © 2004-2019 Karl L. Swartz. All rights reserved.
The Great Circle Mapper name and logo are trademarks of the Great Circle Mapper.
All other trademarks mentioned herein belong to their respective owners.
Please see credits for attibutions and further copyright information.

  Follow gcmap on Facebook Follow gcmap on Twitter GCmap on LinkedIn

hCard Microformat

Geo Microformat